Location: Appleton
(44.2618°N, 88.4157°W)
Time: 18:44:57
(UTC+00:00)

Tiros 1 despin weight - Pass Details

Date: 01 March 2021
Orbit: 593 x 641 km, 48.2° (Epoch: 12 April)

Event Time Altitude Azimuth Distance (km) Brightness Sun altitude
Exits shadow 11:17:09 19° 290° (WNW) 1,503 ? -13.9°
Maximum altitude 11:20:27 81° 205° (SSW) 653 ? -13.3°
Drops below altitude 10° 11:25:08 10° 119° (ESE) 2,027 ? -12.5°
Sets 11:27:27 0° 118° (ESE) 2,932 ? -12.0°
